If you wish to contribute or participate in the discussions about articles you are invited to join SKYbrary as a registered user

 Actions

Kalaeloa Airport

From SKYbrary Wiki

PHJR
Airport
ICAO: PHJR – IATA: JRF
Summary
Name Kalaeloa Airport
Region North America
Territory Hawaii US.gif
Location Kapolei, Hawaii
Serving Kapolei
Elevation 9.144 m
30 ft
30 ft9.144 m
Type medium airport
Coordinates 21° 18' 26.00" N, 158° 4' 13.00" W
Runways
Designator Length Width Surface ROPS
04L/22R 1372 m4,501.312 ft
61 m200.131 ft
ASP /
04R/22L 2438 m7,998.688 ft
61 m200.131 ft
ASP /
11/29 1829 m6,000.656 ft
61 m200.131 ft
ASP /


METAR
Observation PHJR 210853Z AUTO 08009G18KT 10SM BKN035 OVC043 23/17 A3018 RMK AO2 SLP226 T02330167 50006 TSNO
Station Oahu, Kalaeloa Airport
Date/Time 21 February 2020 08:53:00
Wind direction 80°
Wind speed 09 kts
Lowest cloud amount broken clouds
Temperature 23.3°C
Dew point 16.7°C
Humidity 66%
QNH hPa
Weather condition n/a

Maps

Terrain

Loading map...

Airport Layout

Loading map...


Accidents & Serious Incidents at or in vicinity of PHJR

None on SKYbrary